                ,  0.209,  0.306,  0.403,  0.500,  0.597,  0.694,  0.791,  0.888,  0.985,  1.082,  1.179,  1.276,  1.373,  1.470,  1.567,  1.665,  1.762,  1.859,  1.956,  2.053,  2.150,  2.247,  2.344,  2.441,  2.538,  2.635,  2.732,  2.829,  2.926,  3.023,  3.120,  3.217,  3.314,  3.411,  3.508,  3.605,  3.702,  3.799,  3.896,  3.993,  4.090,  4.187,  4.284,  4.381,  4.478,  4.575,  4.672,  4.769,  4.866,  4.964,  5.061,  5.158,  5.255,  5.352,  5.449,  5.546,  5.643,  5.740,  5.837,  5.934,  6.031,  6.128,  6.225,  6.322,  6.419,  6.516,  6.613,  6.710,  6.807,  6.904,  7.001,  7.098,  7.195,  7.292,  7.389,  7.486,  7.583,  7.680,  7.777,  7.874,  7.971,  8.068,  8.165,  8.263,  8.360,  8.457,  8.554,  8.651,  8.748,  8.845,  8.942,  9.039,  9.136,  9.233,  9.330,  9.427,  9.524,  9.621
2009/11/14 00:00,  999.0,  999.0,  999.0,  999.0,   -1.5,   -1.0,   -0.3,   -1.0,   -0.7,   -0.1,    0.2,    0.0,    0.4,    0.9,    2.3,  999.0,    1.6,    2.0,    2.9,    2.1,    2.0,    2.6,    2.8,    2.8,    1.8,    1.5,    1.3,    1.4,    1.4,    1.3,    1.5,    0.9,    1.2,    1.6,  999.0,    1.2,    0.6,    0.1,   -0.3,  999.0,  999.0,    1.2,    0.0,    0.4,    0.4,   -0.2,   -0.4,   -0.6,   -1.4,   -1.0,   -1.9,   -1.6,   -2.0,   -2.2,   -1.4,  999.0,   -1.4,   -1.5,   -1.3,   -2.9,  999.0,  999.0,  999.0,  999.0,  999.0,  999.0,   -2.8,  999.0,  999.0,  999.0,  999.0,  999.0,   -3.0,   -2.8,  999.0,  999.0,  999.0,   -2.4,  999.0,  999.0,  999.0,  999.0,  999.0,  999.0,  999.0,  999.0,  999.0,  999.0,  999.0,  999.0,  999.0,  999.0,  999.0,  999.0,  999.0,  999.0,  999.0,  999.0
2009/11/14 00:10,  999.0,  999.0,  999.0,  999.0,   -1.6,   -0.6,   -0.3,   -0.2,    0.1,    0.7,    0.6,    0.7,    0.6,    0.7,    0.7,  999.0,    2.0,    2.2,  999.0,    1.8,    1.6,    1.6,    3.0,    3.1,    2.4,    1.5,    1.5,    1.5,    1.3,    1.0,    1.5,    1.5,    1.5,    1.7,    1.9,    0.9,    0.1,  999.0,    0.0,    0.0,    0.1,    0.3,  999.0,   -0.4,   -0.5,   -0.3,   -0.6,   -1.0,   -1.7,   -1.9,   -2.3,   -2.3,   -2.1,   -2.1,   -2.0,   -1.5,   -1.5,   -1.8,   -2.5,  999.0,  999.0,  999.0,  999.0,  999.0,  999.0,  999.0,   -2.6,  999.0,  999.0,  999.0,  999.0,  999.0,   -2.4,  999.0,  999.0,  999.0,  999.0,   -2.8,  999.0,  999.0,  999.0,  999.0,  999.0,  999.0,  999.0,  999.0,  999.0,  999.0,  999.0,  999.0,  999.0,  999.0,  999.0,  999.0,  999.0,  999.0,  999.0,  999.0
2009/11/14 00:20,  999.0,  999.0,  999.0,  999.0,   -1.7,   -0.6,   -0.5,   -0.5,    0.4,    0.4,    0.8,    1.5,    1.7,    1.5,    1.4,    1.2,    1.2,    2.0,    2.3,    1.6,    1.4,    1.2,    2.4,    2.7,    2.7,    1.8,    1.5,    1.5,    1.1,    0.8,    1.4,    1.6,    1.1,    1.6,    1.5,    1.0,    0.7,    0.3,   -0.1,    0.8,    0.5,    1.0,    0.9,   -0.1,   -0.5,   -0.6,   -1.1,   -1.7,   -1.9,   -2.1,   -2.3,   -2.2,   -2.4,   -2.5,   -2.6,  999.0,   -2.3,   -2.0,  999.0,  999.0,  999.0,  999.0,  999.0,  999.0,  999.0,   -2.4,   -2.7,  999.0,  999.0,  999.0,   -2.2,  999.0,  999.0,  999.0,  999.0,  999.0,  999.0,   -2.8,  999.0,  999.0,  999.0,  999.0,  999.0,  999.0,  999.0,  999.0,  999.0,  999.0,  999.0,  999.0,  999.0,  999.0,  999.0,  999.0,  999.0,  999.0,  999.0,  999.0
2009/11/14 00:30,  999.0,  999.0,  999.0,   -0.0,   -1.3,   -0.8,   -0.3,    0.1,    0.5,    0.8,    1.0,    1.9,    1.6,    1.8,    2.3,    1.5,    1.7,    2.1,    2.4,    1.5,    1.6,    1.5,    1.9,    2.1,    1.9,    1.5,    1.4,    1.0,    0.4,    0.2,    1.0,    1.2,    1.2,    1.5,    1.4,    0.8,    0.4,    0.6,    0.9,    0.6,    0.6,  999.0,  999.0,   -0.1,   -0.4,   -0.4,   -1.0,   -1.6,   -1.8,   -2.0,   -2.2,   -1.9,   -2.3,   -2.4,   -2.6,  999.0,   -2.3,   -2.4,   -2.5,  999.0,  999.0,  999.0,  999.0,  999.0,  999.0,   -2.0,  999.0,  999.0,  999.0,   -1.2,  999.0,   -1.4,   -1.7,  999.0,  999.0,  999.0,  999.0,  999.0,  999.0,  999.0,  999.0,  999.0,  999.0,  999.0,  999.0,  999.0,  999.0,  999.0,  999.0,  999.0,  999.0,  999.0,  999.0,  999.0,  999.0,  999.0,  999.0,  999.0
2009/11/14 00:40,  999.0,  999.0,   -1.8,  999.0,    0.6,   -0.6,    0.3,    1.0,    1.2,    0.9,    1.5,    1.6,    2.0,    1.8,    2.2,    1.8,    1.5,    0.8,    1.3,    1.8,    0.9,    0.9,    1.4,    1.7,    1.6,    1.4,    0.6,    0.1,   -0.2,   -0.6,    0.1,    0.2,    0.4,    0.1,   -0.5,   -0.6,   -0.5,    0.1,   -0.8,    0.1,    0.5,    0.1,  999.0,   -0.2,    0.3,   -0.1,   -0.7,   -1.3,   -1.1,   -1.1,   -1.5,   -1.2,   -0.7,   -1.3,   -1.3,   -1.6,   -1.8,   -1.5,   -1.8,  999.0,  999.0,  999.0,  999.0,  999.0,  999.0,   -1.2,  999.0,  999.0,  999.0,  999.0,  999.0,  999.0,   -1.7,   -2.2,  999.0,  999.0,  999.0,   -2.2,  999.0,  999.0,  999.0,  999.0,  999.0,  999.0,  999.0,  999.0,  999.0,  999.0,  999.0,  999.0,  999.0,  999.0,  999.0,  999.0,  999.0,  999.0,  999.0,  999.0
2009/11/14 00:50,  999.0,  999.0,  999.0,  999.0,   -0.8,   -0.5,   -0.2,    0.1,    0.6,  999.0,    1.1,    0.7,    1.8,    2.0,    1.6,    1.5,    1.2,    1.5,    1.2,    1.1,    1.3,    1.5,    2.1,    2.0,    1.5,    1.3,    1.0,    0.3,   -0.4,   -0.0,   -0.1,   -0.2,    0.1,   -0.0,   -0.3,   -0.4,    0.0,   -0.1,   -0.0,    0.1,    0.4,  999.0,   -0.5,   -0.6,   -0.3,   -0.2,  999.0,   -0.7,   -0.7,   -0.7,   -0.9,   -1.2,   -1.3,   -1.7,   -1.8,   -1.6,   -1.9,   -1.6,   -2.1,  999.0,  999.0,  999.0,  999.0,  999.0,  999.0,   -2.1,  999.0,  999.0,  999.0,   -1.6,  999.0,  999.0,   -3.4,  999.0,  999.0,  999.0,  999.0,  999.0,  999.0,  999.0,  999.0,  999.0,  999.0,  999.0,  999.0,  999.0,  999.0,  999.0,  999.0,  999.0,  999.0,  999.0,  999.0,  999.0,  999.0,  999.0,  999.0,  999.0
2009/11/14 01:00,  999.0,  999.0,  999.0,   -1.1,   -1.2,   -0.5,   -0.1,    0.1,    0.5,    0.9,    1.4,    1.7,    1.1,    1.9,    1.8,    1.6,    1.9,    1.4,    1.5,    1.6,    1.8,    1.9,    2.6,    2.1,    1.8,    1.3,    1.2,    0.6,   -0.3,   -0.4,   -0.7,   -0.8,   -0.6,   -0.6,   -0.8,   -0.8,   -0.5,   -0.3,   -0.4,   -0.3,   -0.1,   -0.8,   -1.1,   -1.3,   -0.9,   -1.0,   -0.9,   -0.8,   -1.1,   -1.2,   -1.3,   -1.3,   -1.6,   -1.7,   -1.5,   -1.8,   -1.5,  999.0,  999.0,  999.0,  999.0,  999.0,  999.0,  999.0,  999.0,   -1.7,  999.0,  999.0,   -1.5,  999.0,   -2.0,   -2.9,   -3.1,   -4.3,  999.0,  999.0,  999.0,  999.0,  999.0,  999.0,  999.0,  999.0,  999.0,  999.0,  999.0,  999.0,  999.0,  999.0,  999.0,  999.0,  999.0,  999.0,  999.0,  999.0,  999.0,  999.0,  999.0,  999.0
2009/11/14 01:10,  999.0,  999.0,  999.0,   -0.9,   -1.1,   -0.9,   -0.4,    0.1,    0.5,    0.9,    1.3,    1.5,    2.0,    2.5,    2.5,    2.4,    2.5,    2.2,    2.0,    1.8,    2.0,    2.5,    2.3,    2.3,    2.2,    1.5,    0.9,    0.3,   -1.0,   -1.2,   -1.3,   -1.1,   -0.7,   -0.5,   -0.5,   -0.8,   -0.9,   -0.6,   -0.9,   -1.0,   -0.9,   -1.1,   -1.3,   -1.3,   -1.3,   -1.3,   -1.1,   -1.1,   -1.2,   -1.3,   -1.5,   -1.3,   -1.9,   -1.8,   -1.9,   -1.8,   -1.8,  999.0,  999.0,  999.0,  999.0,  999.0,  999.0,  999.0,  999.0,  999.0,  999.0,   -1.3,  999.0,  999.0,   -0.9,   -1.8,   -2.5,  999.0,  999.0,  999.0,  999.0,  999.0,  999.0,  999.0,  999.0,  999.0,  999.0,  999.0,  999.0,  999.0,  999.0,  999.0,  999.0,  999.0,  999.0,  999.0,  999.0,  999.0,  999.0,  999.0,  999.0,  999.0
2009/11/14 01:20,  999.0,  999.0,  999.0,   -1.5,   -1.5,   -1.4,   -1.0,   -0.4,   -0.0,    0.7,    1.2,    1.4,    2.2,    2.4,    2.6,    2.2,    2.2,    2.5,    2.5,    2.9,    2.8,    2.9,    3.1,    2.9,    2.7,    1.9,    1.4,    0.6,    0.2,   -0.1,   -0.4,   -0.7,   -1.1,   -1.0,   -0.6,   -0.9,   -1.4,   -1.3,   -1.2,   -1.1,   -1.0,   -1.1,   -1.4,   -1.1,   -1.4,   -1.0,   -0.8,   -0.7,   -0.6,   -0.9,   -1.0,   -0.7,   -0.8,   -0.9,   -1.1,   -1.3,   -1.8,  999.0,  999.0,  999.0,  999.0,  999.0,  999.0,  999.0,  999.0,  999.0,  999.0,   -1.1,  999.0,  999.0,   -2.0,   -1.7,   -1.9,  999.0,  999.0,  999.0,  999.0,  999.0,  999.0,  999.0,  999.0,  999.0,  999.0,  999.0,  999.0,  999.0,  999.0,  999.0,  999.0,  999.0,  999.0,  999.0,  999.0,  999.0,  999.0,  999.0,  999.0,  999.0
2009/11/14 01:30,  999.0,  999.0,  999.0,  999.0,   -1.2,   -0.8,   -0.3,   -0.4,   -0.1,    0.2,    0.7,    1.2,    1.5,    1.6,    1.4,    1.4,    2.1,    2.2,    2.3,    2.6,    2.4,    2.4,    2.6,    2.6,    2.5,    1.9,    1.1,    0.4,    0.4,    0.6,    0.8,    0.5,    0.5,    0.4,    0.3,   -0.2,   -0.9,   -1.0,   -0.9,   -0.5,   -0.8,   -0.8,   -0.9,   -1.1,   -1.0,   -0.6,   -0.7,   -0.7,   -0.8,   -1.1,   -1.3,   -1.4,   -1.3,   -1.3,   -1.5,   -1.9,   -2.0,  999.0,  999.0,  999.0,  999.0,  999.0,  999.0,  999.0,  999.0,  999.0,   -1.5,   -1.4,   -1.0,  999.0,  999.0,   -2.2,  999.0,  999.0,  999.0,  999.0,  999.0,  999.0,  999.0,  999.0,  999.0,  999.0,  999.0,  999.0,  999.0,  999.0,  999.0,  999.0,  999.0,  999.0,  999.0,  999.0,  999.0,  999.0,  999.0,  999.0,  999.0,  999.0
2009/11/14 01:40,  999.0,  999.0,  999.0,  999.0,  999.0,   -1.0,   -0.7,    0.1,    0.2,    0.2,    0.7,    1.2,    1.4,    1.2,    1.5,    1.7,    2.1,    2.1,    2.2,    2.5,    3.1,    2.8,    2.6,    2.4,    1.6,    1.5,    1.0,    1.2,    1.5,    1.6,    0.1,   -0.7,   -0.7,   -0.4,   -0.0,    0.1,   -0.2,   -0.5,   -1.1,   -1.4,   -1.9,   -2.0,   -2.1,   -2.2,   -1.9,   -2.1,   -1.6,   -1.5,   -1.5,   -1.5,   -1.4,   -2.0,   -2.2,   -1.6,   -1.7,   -1.8,   -2.0,  999.0,  999.0,  999.0,  999.0,  999.0,  999.0,   -0.7,   -0.7,  999.0,  999.0,  999.0,   -1.3,  999.0,  999.0,   -2.3,   -2.6,  999.0,  999.0,  999.0,  999.0,  999.0,  999.0,  999.0,  999.0,  999.0,  999.0,  999.0,  999.0,  999.0,  999.0,  999.0,  999.0,  999.0,  999.0,  999.0,  999.0,  999.0,  999.0,  999.0,  999.0,  999.0
2009/11/14 01:50,  999.0,  999.0,  999.0,  999.0,  999.0,   -1.6,   -0.5,   -0.5,   -0.5,   -0.4,    0.8,    1.3,    1.6,    1.7,    1.9,    2.5,    2.7,    2.8,    2.5,    2.3,    2.4,    2.3,    2.4,    1.9,    0.8,    0.7,    0.8,    1.3,    1.2,    0.6,   -0.3,    0.3,    0.5,    0.6,    0.8,    0.8,    0.0,   -0.3,   -0.6,   -0.8,   -1.2,   -1.0,   -1.2,   -1.2,   -1.1,   -1.3,   -1.1,   -0.9,   -1.0,   -0.6,   -0.6,   -0.9,   -1.0,   -0.9,   -1.1,   -1.0,  999.0,  999.0,  999.0,  999.0,  999.0,  999.0,  999.0,  999.0,  999.0,  999.0,  999.0,  999.0,  999.0,  999.0,  999.0,  999.0,   -2.2,   -2.0,  999.0,  999.0,  999.0,  999.0,  999.0,  999.0,  999.0,  999.0,  999.0,  999.0,  999.0,  999.0,  999.0,  999.0,  999.0,  999.0,  999.0,  999.0,  999.0,  999.0,  999.0,  999.0,  999.0,  999.0
2009/11/14 02:00,  999.0,  999.0,  999.0,   -1.6,   -1.6,   -1.4,   -1.0,   -1.1,   -0.5,    0.1,    1.0,    1.4,    1.5,    1.2,    2.1,    2.5,    2.6,    2.9,    2.7,    2.3,    2.3,    1.8,    1.8,    1.1,    0.8,    1.2,    1.5,    1.6,    0.8,    0.7,    0.3,   -0.1,   -0.7,   -0.7,   -0.9,   -1.1,   -1.2,   -1.1,   -1.0,   -1.4,   -1.5,   -1.9,   -2.3,   -2.2,   -2.2,   -2.3,   -2.0,   -2.0,   -1.9,   -1.7,   -1.4,   -1.6,   -1.6,   -1.6,   -2.0,   -1.3,  999.0,  999.0,  999.0,  999.0,  999.0,  999.0,  999.0,  999.0,   -1.3,  999.0,  999.0,  999.0,  999.0,  999.0,  999.0,  999.0,   -2.0,  999.0,  999.0,  999.0,  999.0,  999.0,  999.0,  999.0,  999.0,  999.0,  999.0,  999.0,  999.0,  999.0,  999.0,  999.0,  999.0,  999.0,  999.0,  999.0,  999.0,  999.0,  999.0,  999.0,  999.0,  999.0
2009/11/14 02:10,  999.0,  999.0,  999.0,   -1.5,   -1.0,   -1.1,   -0.6,   -0.6,   -0.2,    0.5,    1.0,    1.3,    1.6,    2.2,    2.7,    2.8,    2.8,    3.0,    2.9,    2.6,    2.5,    2.2,    1.8,    1.7,    1.2,    1.5,    0.9,    0.6,   -0.2,   -0.6,   -0.9,   -0.5,   -0.8,   -0.2,   -0.4,   -0.4,   -0.4,   -0.8,   -1.2,   -1.0,   -1.4,   -1.6,   -1.9,   -2.0,   -2.0,   -2.0,   -1.6,   -1.4,   -1.3,   -0.9,   -0.7,   -0.8,   -1.1,   -1.2,   -1.4,   -1.4,   -1.1,  999.0,  999.0,  999.0,  999.0,  999.0,  999.0,  999.0,  999.0,  999.0,  999.0,  999.0,  999.0,   -1.4,   -1.4,  999.0,  999.0,  999.0,  999.0,  999.0,  999.0,  999.0,  999.0,  999.0,  999.0,  999.0,  999.0,  999.0,  999.0,  999.0,  999.0,  999.0,  999.0,  999.0,  999.0,  999.0,  999.0,  999.0,  999.0,  999.0,  999.0,  999.0
2009/11/14 02:20,  999.0,  999.0,  999.0,   -1.5,   -1.7,   -1.2,   -0.9,   -0.2,    0.1,    0.3,    0.7,    1.1,    1.7,    3.0,    2.9,    3.2,    3.1,    3.0,    2.7,    2.7,    2.9,    3.1,    3.1,    3.0,    1.7,    0.4,   -0.3,   -0.5,   -0.8,    0.1,    1.1,    1.4,    1.2,    1.0,    0.2,   -0.0,   -1.1,   -1.2,   -1.1,   -1.2,   -1.1,   -1.3,   -1.5,   -1.6,   -1.4,   -1.4,   -1.2,   -0.8,   -0.8,   -1.1,   -0.7,   -0.5,   -0.6,   -1.0,   -1.3,   -1.3,   -1.2,   -0.4,   -1.2,  999.0,  999.0,  999.0,  999.0,  999.0,  999.0,  999.0,  999.0,  999.0,  999.0,  999.0,  999.0,  999.0,   -2.4,  999.0,  999.0,  999.0,  999.0,  999.0,  999.0,  999.0,  999.0,  999.0,  999.0,  999.0,  999.0,  999.0,  999.0,  999.0,  999.0,  999.0,  999.0,  999.0,  999.0,  999.0,  999.0,  999.0,  999.0,  999.0
2009/11/14 02:30,  999.0,  999.0,  999.0,  999.0,   -2.2,   -1.4,   -0.9,   -0.4,   -0.1,    0.2,    0.3,    1.2,    2.0,    2.8,    3.2,    2.6,    2.8,    3.0,    3.3,    3.0,    2.6,    2.6,    2.4,    1.8,    1.1,    0.4,    0.1,    1.1,    0.3,    1.0,    0.4,    0.4,   -0.5,   -0.2,   -0.0,   -0.1,   -0.5,   -0.6,   -0.8,   -0.9,   -1.1,   -0.9,   -1.1,   -0.9,   -0.8,   -0.6,   -0.3,   -0.4,    0.1,   -0.2,    0.2,    0.4,    0.1,   -0.3,   -0.6,   -1.2,   -0.8,  999.0,   -1.1,  999.0,  999.0,  999.0,  999.0,  999.0,  999.0,  999.0,  999.0,  999.0,  999.0,  999.0,  999.0,  999.0,  999.0,  999.0,  999.0,  999.0,  999.0,  999.0,  999.0,  999.0,  999.0,  999.0,  999.0,  999.0,  999.0,  999.0,  999.0,  999.0,  999.0,  999.0,  999.0,  999.0,  999.0,  999.0,  999.0,  999.0,  999.0,  999.0
2009/11/14 02:40,  999.0,  999.0,  999.0,   -1.9,  999.0,   -0.9,   -0.7,   -0.3,   -0.6,   -0.2,    0.1,    1.0,    2.0,    2.3,    2.3,    2.7,    2.7,    2.8,    2.8,    2.7,    2.1,    1.7,    1.8,    1.3,    1.3,    1.4,    1.7,    1.9,    1.2,    0.5,   -0.3,   -0.5,   -0.3,    0.4,    0.6,    0.7,    0.2,   -0.3,   -0.3,   -0.3,   -0.4,   -0.3,   -0.2,   -0.5,   -0.8,   -0.8,   -0.7,   -0.7,   -0.7,   -0.8,   -0.3,    0.3,    0.3,   -0.3,   -0.3,   -0.7,   -1.2,   -0.2,  999.0,  999.0,  999.0,  999.0,  999.0,  999.0,  999.0,  999.0,  999.0,  999.0,  999.0,  999.0,  999.0,  999.0,  999.0,  999.0,  999.0,  999.0,  999.0,   -3.4,  999.0,  999.0,   -4.5,  999.0,  999.0,  999.0,  999.0,  999.0,  999.0,  999.0,  999.0,  999.0,  999.0,  999.0,  999.0,  999.0,  999.0,  999.0,  999.0,  999.0
2009/11/14 02:50,  999.0,  999.0,   -0.0,   -1.2,   -1.3,   -0.3,   -0.1,   -0.2,    0.0,    0.5,    1.1,    1.3,    1.9,    2.2,    2.9,    3.0,    3.1,    2.8,    2.5,    2.0,    1.7,    2.0,    2.3,    3.0,    2.5,    1.8,    0.9,   -0.1,   -0.5,   -0.4,    0.0,    0.3,   -0.0,    0.2,    0.1,    0.2,    0.0,   -0.2,   -0.3,   -0.6,   -0.7,   -0.8,   -0.7,   -0.7,   -0.7,   -0.7,   -0.4,   -0.3,   -0.6,   -0.6,   -0.4,    0.4,    0.1,   -0.4,   -0.6,   -1.2,   -1.0,   -0.5,  999.0,  999.0,  999.0,  999.0,  999.0,  999.0,  999.0,  999.0,  999.0,  999.0,  999.0,  999.0,  999.0,  999.0,  999.0,  999.0,  999.0,  999.0,  999.0,  999.0,  999.0,   -3.9,   -4.9,   -4.7,  999.0,  999.0,  999.0,  999.0,  999.0,  999.0,  999.0,  999.0,  999.0,  999.0,  999.0,  999.0,  999.0,  999.0,  999.0,  999.0
2009/11/14 03:00,  999.0,  999.0,  999.0,   -0.8,  999.0,   -0.1,   -0.1,    0.1,    0.7,    1.1,    1.7,    1.9,    2.8,    3.4,    3.4,    3.3,    3.2,    3.0,    3.3,    3.1,    2.6,    2.6,    2.3,    2.3,    2.3,    1.6,   -0.2,   -0.8,   -0.7,   -0.1,    0.4,    0.4,    0.1,   -0.3,   -0.0,   -0.4,    0.1,    0.3,    0.5,    0.4,   -0.1,   -0.7,   -1.1,   -1.8,   -2.2,   -2.1,   -1.9,   -1.9,   -1.8,   -1.7,   -1.4,   -1.0,   -1.0,   -1.0,   -1.4,   -1.1,  999.0,  999.0,  999.0,  999.0,  999.0,  999.0,  999.0,  999.0,  999.0,  999.0,  999.0,   -1.1,  999.0,  999.0,  999.0,  999.0,  999.0,  999.0,  999.0,  999.0,  999.0,  999.0,  999.0,  999.0,  999.0,  999.0,  999.0,  999.0,  999.0,  999.0,  999.0,  999.0,  999.0,  999.0,  999.0,  999.0,  999.0,  999.0,  999.0,  999.0,  999.0,  999.0
2009/11/14 03:10,  999.0,  999.0,  999.0,  999.0,  999.0,   -0.1,   -0.1,  999.0,    0.4,    1.2,    1.8,    1.5,    1.6,    1.6,    2.5,    2.9,    2.8,    3.4,    3.2,    2.7,    2.4,    2.4,    2.4,    2.4,    1.9,    0.4,   -0.7,   -0.5,    0.1,    0.4,    0.6,    0.5,    0.1,    0.4,    0.6,    0.5,    0.6,    0.8,    1.0,    0.5,    0.3,    0.0,   -0.4,   -0.9,   -1.2,   -1.3,   -0.9,   -0.7,   -0.9,   -1.2,   -1.3,   -1.5,   -1.1,   -0.9,   -0.7,    0.1,    0.8,    1.0,  999.0,  999.0,  999.0,  999.0,  999.0,  999.0,  999.0,  999.0,  999.0,  999.0,  999.0,  999.0,  999.0,  999.0,  999.0,  999.0,  999.0,  999.0,  999.0,  999.0,   -4.0,   -3.4,  999.0,  999.0,  999.0,  999.0,  999.0,  999.0,  999.0,  999.0,  999.0,  999.0,  999.0,  999.0,  999.0,  999.0,  999.0,  999.0,  999.0,  999.0
